[[{"header":{"parameterUnit":"m.s-1","parameterCategory":1,"la1":30.2992,"la2":30.254,"lo1":-89.0895,"lo2":-89.0443,"dy":0.0025,"dx":0.0025,"nx":19,"ny":19,"refTime":"2026-05-03T03:00:00:Z","depth":0,"parameterNumber":2,"parameterNumberName":"U-component_of_WINDS"},"data":[0,0,0,-0.5381,-0.5379,-0.5309,-0.5309,-0.5246,-0.5245,0,0,0,0,0,0,0,0,0,0,0,-0.5417,-0.5417,-0.5381,-0.5379,-0.5309,-0.5309,-0.5246,-0.5245,0,0,0,0,0,0,0,0,0,0,0,-0.5417,-0.5417,-0.5417,-0.5379,-0.5309,-0.5309,-0.5246,-0.5289,0,0,0,0,0,0,0,0,0,0,-0.5353,-0.5402,-0.5417,-0.5417,-0.5379,-0.5309,-0.5309,-0.5291,-0.5287,-0.5289,0,-0.5294,0,-0.5269,-0.5243,-0.5243,0,0,0,-0.5368,-0.5406,-0.5373,-0.5417,-0.5378,-0.5309,-0.5338,-0.5288,-0.5284,-0.5283,-0.5293,-0.529,-0.5268,-0.5243,-0.5242,-0.5294,-0.5295,0,0,-0.5372,-0.5413,-0.5376,-0.537,-0.5382,-0.534,-0.5336,-0.5285,-0.5299,-0.5293,-0.5288,-0.5267,-0.5242,-0.5242,-0.5293,-0.5294,0,0,0,-0.5391,-0.5416,-0.5383,-0.5374,-0.5359,-0.5338,-0.5333,-0.5301,-0.5287,-0.5287,-0.5266,-0.5242,-0.5242,-0.5292,-0.5293,-0.5374,0,0,0,-0.5392,-0.5427,-0.5386,-0.541,-0.536,-0.5329,-0.5351,-0.529,-0.5283,-0.5267,-0.5242,-0.5241,-0.5291,-0.5293,-0.5369,-0.5405,0,0,0,-0.5416,-0.543,-0.5425,-0.5413,-0.5384,-0.5329,-0.5311,-0.5288,-0.5271,-0.5243,-0.5241,-0.529,-0.5292,-0.5366,-0.5399,-0.5433,0,0,0,-0.5454,-0.5496,-0.5427,-0.5466,-0.5385,-0.5378,-0.5311,-0.5304,-0.5289,-0.5242,-0.5291,-0.5293,-0.5364,-0.5395,-0.5429,-0.547,-0.549,0,0,-0.553,-0.5507,-0.5526,-0.5462,-0.5479,-0.5386,-0.5414,-0.5361,-0.532,-0.5305,-0.5306,-0.5371,-0.5398,-0.5432,-0.5586,-0.5603,0,0,0,-0.5565,-0.558,-0.5575,-0.5563,-0.5523,-0.5493,-0.5431,-0.5412,-0.5398,-0.532,-0.5389,-0.5405,-0.5423,-0.5441,-0.5455,-0.5469,-0.5302,-0.5302,-0.5302,-0.5733,-0.5679,-0.5709,-0.5647,-0.5636,-0.5573,-0.5559,-0.5522,-0.547,-0.5488,-0.5484,-0.5584,-0.5606,-0.5617,-0.5632,-0.5499,-0.5499,-0.5499,-0.55,-0.5842,-0.5856,-0.5786,-0.5791,-0.5734,-0.5737,-0.5678,-0.5641,-0.5637,-0.5582,-0.5595,-0.5542,-0.5636,-0.5647,-0.5505,-0.5504,-0.5504,-0.5503,-0.5503,-0.5948,-0.5946,-0.5921,-0.5899,-0.5889,-0.5824,-0.5823,-0.5771,-0.5721,-0.5734,-0.5726,-0.5724,-0.5718,-0.5733,-0.5733,-0.5734,-0.5734,-0.5734,-0.5735,-0.6069,-0.6039,-0.6045,-0.6008,-0.5994,-0.5969,-0.5906,-0.5891,-0.5862,-0.5824,-0.5823,-0.5772,-0.5655,-0.5628,-0.574,-0.5739,-0.5738,-0.5738,-0.5737,-0.6204,-0.6165,-0.6175,-0.6161,-0.6114,-0.6109,-0.6041,-0.6016,-0.5995,-0.5998,-0.5942,-0.5863,-0.5836,-0.5824,-0.5802,-0.5952,-0.5952,-0.5952,-0.5952,-0.6296,-0.6276,-0.6275,-0.6257,-0.6233,-0.6174,-0.6188,-0.6141,-0.6085,-0.607,-0.604,-0.6005,-0.5995,-0.5973,-0.5959,-0.5937,-0.6118,-0.6118,-0.6118,-0.6377,-0.6353,-0.6375,-0.632,-0.6279,-0.6247,-0.6259,-0.6243,-0.6171,-0.6124,-0.6057,-0.605,-0.5993,-0.5977,-0.5931,-0.5909,-0.5869,0,0]},{"header":{"parameterUnit":"m.s-1","parameterCategory":1,"la1":30.2992,"la2":30.254,"lo1":-89.0895,"lo2":-89.0443,"dy":0.0025,"dx":0.0025,"nx":19,"ny":19,"refTime":"2026-05-03T03:00:00:Z","depth":0,"parameterNumber":3,"parameterNumberName":"V-component_of_WINDS"},"data":[0,0,0,-1.1315,-1.1315,-1.1342,-1.1342,-1.1375,-1.1376,0,0,0,0,0,0,0,0,0,0,0,-1.1306,-1.1306,-1.1315,-1.1315,-1.1342,-1.1342,-1.1375,-1.1376,0,0,0,0,0,0,0,0,0,0,0,-1.1306,-1.1306,-1.1306,-1.1316,-1.1342,-1.1342,-1.1375,-1.1356,0,0,0,0,0,0,0,0,0,0,-1.133,-1.132,-1.1306,-1.1306,-1.1316,-1.1342,-1.1342,-1.1355,-1.1357,-1.1363,0,-1.1367,0,-1.1372,-1.1378,-1.1378,0,0,0,-1.1317,-1.1318,-1.1327,-1.1306,-1.1316,-1.1342,-1.133,-1.1356,-1.1358,-1.1366,-1.1368,-1.1369,-1.1372,-1.1378,-1.1378,-1.1409,-1.1409,0,0,-1.1315,-1.131,-1.1325,-1.1328,-1.1323,-1.1329,-1.1331,-1.1357,-1.1359,-1.1368,-1.137,-1.1373,-1.1378,-1.1378,-1.1409,-1.1409,0,0,0,-1.131,-1.1309,-1.1317,-1.1327,-1.1332,-1.133,-1.1332,-1.1358,-1.1361,-1.137,-1.1373,-1.1378,-1.1379,-1.1409,-1.1409,-1.1409,0,0,0,-1.1309,-1.1306,-1.1316,-1.1313,-1.1331,-1.1345,-1.1332,-1.1359,-1.1362,-1.1373,-1.1378,-1.1379,-1.1409,-1.1409,-1.1409,-1.141,0,0,0,-1.1305,-1.1305,-1.1309,-1.1313,-1.1324,-1.1345,-1.1349,-1.136,-1.1364,-1.1378,-1.1379,-1.1409,-1.1409,-1.1409,-1.141,-1.1418,0,0,0,-1.1298,-1.1307,-1.1309,-1.1321,-1.1323,-1.1344,-1.1349,-1.1365,-1.1376,-1.1379,-1.1409,-1.1409,-1.1409,-1.141,-1.1418,-1.1425,-1.1427,0,0,-1.1307,-1.1308,-1.1316,-1.1318,-1.1337,-1.1341,-1.136,-1.1376,-1.1382,-1.14,-1.1401,-1.1409,-1.141,-1.1418,-1.1439,-1.144,0,0,0,-1.1317,-1.1323,-1.1329,-1.134,-1.1352,-1.1364,-1.1377,-1.1383,-1.1399,-1.139,-1.1414,-1.1415,-1.142,-1.1423,-1.1425,-1.143,-1.141,-1.141,-1.141,-1.1323,-1.1331,-1.1345,-1.1357,-1.1367,-1.1382,-1.1392,-1.1403,-1.1407,-1.1413,-1.1418,-1.143,-1.1434,-1.1435,-1.144,-1.1422,-1.1422,-1.1422,-1.1422,-1.1338,-1.1348,-1.1355,-1.1371,-1.138,-1.1394,-1.141,-1.1412,-1.1428,-1.1425,-1.143,-1.1428,-1.1436,-1.1442,-1.1422,-1.1422,-1.1422,-1.1422,-1.1422,-1.1343,-1.1349,-1.1357,-1.1375,-1.1389,-1.1401,-1.1416,-1.1423,-1.1431,-1.1435,-1.1443,-1.1443,-1.1446,-1.1439,-1.1439,-1.1439,-1.1439,-1.1439,-1.1439,-1.1345,-1.1354,-1.1365,-1.1381,-1.139,-1.1404,-1.142,-1.143,-1.1443,-1.1447,-1.1448,-1.1453,-1.1435,-1.1431,-1.1439,-1.1439,-1.1439,-1.1439,-1.1439,-1.1358,-1.1357,-1.1375,-1.1384,-1.1405,-1.1419,-1.1429,-1.1449,-1.1458,-1.1466,-1.1471,-1.1456,-1.1458,-1.1457,-1.1454,-1.1468,-1.1468,-1.1468,-1.1468,-1.1363,-1.1365,-1.1386,-1.1401,-1.1417,-1.1429,-1.1451,-1.1466,-1.148,-1.1487,-1.1486,-1.1482,-1.1481,-1.1484,-1.1482,-1.1479,-1.1499,-1.1499,-1.1499,-1.1372,-1.1377,-1.1393,-1.1407,-1.1425,-1.144,-1.1462,-1.1481,-1.1497,-1.1501,-1.1493,-1.1491,-1.1486,-1.1483,-1.1486,-1.1484,-1.1479,0,0]}]]